Overview Statistics Trail Chart Weather Telemetry Raw packets
 

This is the latest recevied weather packets stored in our database for station/object IW1PPB-3. If no packets are shown the sender has not sent any weather packets the latest 10 day(s).

<< 8 9 10 11 12 13 14 >>
Time Temp. Humidity Pressure Rain* Wind** Luminosity Snow
1788426806 27.78° C 75% 1019.2 hPa 0 mm - - -
1788426219 27.78° C 73% 1019.1 hPa 0 mm - - -
1788425606 27.78° C 77% 1018.9 hPa 0 mm - - -
1788425022 27.78° C 77% 1018.9 hPa 0 mm - - -
1788424413 27.78° C 76% 1018.8 hPa 0 mm - - -
1788423828 27.78° C 77% 1018.8 hPa 0 mm - - -
1788422604 27.22° C 77% 1018.6 hPa 0 mm - - -
1788422012 26.67° C 78% 1018.6 hPa 0 mm - - -
1788421426 26.67° C 78% 1018.6 hPa 0 mm - - -
1788420816 26.67° C 77% 1018.4 hPa 0 mm - - -
1788420203 26.67° C 77% 1018.4 hPa 0 mm - - -
1788419617 26.67° C 76% 1018.5 hPa 0 mm - - -
1788419004 26.67° C 77% 1018.5 hPa 0 mm - - -
1788418421 26.67° C 78% 1018.5 hPa 0 mm - - -
1788417804 26.11° C 80% 1018.5 hPa 0 mm - - -
1788417224 25.56° C 81% 1018.5 hPa 0 mm - - -
1788416608 25° C 81% 1018.4 hPa 0 mm - - -
1788416019 25° C 82% 1018.3 hPa 0 mm - - -
1788415413 24.44° C 83% 1018.3 hPa 0 mm - - -
1788414803 24.44° C 83% 1018.1 hPa 0 mm - - -
1788414210 24.44° C 83% 1018.2 hPa 0 mm - - -
1788413606 24.44° C 83% 1018.1 hPa 0 mm - - -
1788413012 24.44° C 84% 1017.9 hPa 0 mm - - -
1788412429 23.89° C 84% 1017.7 hPa 0 mm - - -
1788411816 23.89° C 84% 1017.8 hPa 0 mm - - -

* Rain latest hour (hover to see other rain measurements)
** Current wind speed in m/s (hover to see current wind gust speed)